When you browse on this site, cookies collect data to enhance your experience and personalize the content and advertising you see.
Visit our Privacy Policy to learn more. By continuing to use the site, you agree to this use of cookies and data.
  • In Portugal
  • List of Countries
  • For 7 days
  • Water Temperature
  • Satellite Maps
  • Weather Map
  • Weather Widgets
  • user-avatar
    Login

    Hourly Weather Natitingou

    Today, 19 February, Tuesday

    Time Temperature Precipitation Wind Pressure Humidity
    00:00 +28°C° 0 mm 2 mps 717 mmHg 14%
    01:00 +28°C° 0 mm 2 mps 716 mmHg 14%
    02:00 +27°C° 0 mm 2 mps 716 mmHg 14%
    03:00 +27°C° 0 mm 2 mps 716 mmHg 14%
    04:00 +27°C° 0 mm 2 mps 716 mmHg 14%
    05:00 +27°C° 0 mm 3 mps 716 mmHg 14%
    06:00 +26°C° 0 mm 3 mps 716 mmHg 14%
    07:00 +28°C° 0 mm 3 mps 716 mmHg 13%
    08:00 +30°C° 0 mm 3 mps 717 mmHg 12%
    09:00 +31°C° 0 mm 3 mps 717 mmHg 11%
    10:00 +35°C° 0 mm 3 mps 717 mmHg 10%
    11:00 +37°C° 0 mm 2 mps 717 mmHg 9%
    12:00 +40°C° 0 mm 2 mps 717 mmHg 8%
    13:00 +41°C° 0 mm 1 mps 716 mmHg 8%
    14:00 +41°C° 0 mm 1 mps 716 mmHg 8%
    15:00 +42°C° 0 mm 1 mps 715 mmHg 7%
    16:00 +40°C° 0 mm 1 mps 715 mmHg 8%
    17:00 +35°C° 0 mm 0 mps 714 mmHg 10%
    18:00 +32°C° 0 mm 0 mps 714 mmHg 11%
    19:00 +33°C° 0 mm 1 mps 715 mmHg 11%
    20:00 +32°C° 0 mm 1 mps 715 mmHg 11%
    21:00 +31°C° 0 mm 1 mps 716 mmHg 12%
    22:00 +30°C° 0 mm 1 mps 716 mmHg 12%
    23:00 +30°C° 0 mm 1 mps 716 mmHg 12%

    Tomorrow, 20 February, Wednesday

    Time Temperature Precipitation Wind Pressure Humidity
    00:00 +29°C° 0 mm 1 mps 716 mmHg 12%
    01:00 +29°C° 0 mm 1 mps 716 mmHg 12%
    02:00 +28°C° 0 mm 2 mps 715 mmHg 12%
    03:00 +28°C° 0 mm 2 mps 715 mmHg 12%
    04:00 +27°C° 0 mm 2 mps 715 mmHg 13%
    05:00 +26°C° 0 mm 2 mps 715 mmHg 13%
    06:00 +26°C° 0 mm 1 mps 716 mmHg 14%
    07:00 +28°C° 0 mm 2 mps 717 mmHg 12%
    08:00 +31°C° 0 mm 2 mps 718 mmHg 10%
    09:00 +35°C° 0 mm 2 mps 719 mmHg 8%
    10:00 +37°C° 0 mm 2 mps 718 mmHg 8%
    11:00 +39°C° 0 mm 2 mps 718 mmHg 8%
    12:00 +41°C° 0 mm 2 mps 718 mmHg 8%
    13:00 +42°C° 0 mm 1 mps 717 mmHg 8%
    14:00 +42°C° 0 mm 1 mps 716 mmHg 8%
    15:00 +43°C° 0 mm 1 mps 715 mmHg 8%
    16:00 +41°C° 0 mm 1 mps 715 mmHg 9%
    17:00 +35°C° 0 mm 0 mps 715 mmHg 10%
    18:00 +33°C° 0 mm 0 mps 715 mmHg 11%
    19:00 +34°C° 0 mm 1 mps 716 mmHg 12%
    20:00 +33°C° 0 mm 1 mps 716 mmHg 12%
    21:00 +32°C° 0 mm 1 mps 717 mmHg 12%
    22:00 +31°C° 0 mm 1 mps 717 mmHg 12%
    23:00 +31°C° 0 mm 1 mps 717 mmHg 12%

    Day after tomorrow, 21 February, Thursday

    Time Temperature Precipitation Wind Pressure Humidity
    00:00 +30°C° 0 mm 1 mps 717 mmHg 11%
    01:00 +30°C° 0 mm 1 mps 716 mmHg 11%
    02:00 +29°C° 0 mm 1 mps 716 mmHg 12%
    03:00 +29°C° 0 mm 2 mps 716 mmHg 12%
    04:00 +28°C° 0 mm 2 mps 716 mmHg 12%
    05:00 +27°C° 0 mm 2 mps 716 mmHg 13%
    06:00 +27°C° 0 mm 2 mps 717 mmHg 13%
    07:00 +29°C° 0 mm 2 mps 718 mmHg 15%
    08:00 +32°C° 0 mm 2 mps 719 mmHg 17%
    09:00 +35°C° 0 mm 2 mps 720 mmHg 18%
    10:00 +37°C° 0 mm 2 mps 719 mmHg 16%
    11:00 +40°C° 0 mm 1 mps 719 mmHg 14%
    12:00 +42°C° 0 mm 1 mps 719 mmHg 11%
    13:00 +43°C° 0 mm 1 mps 718 mmHg 11%
    14:00 +43°C° 0 mm 1 mps 717 mmHg 10%
    15:00 +43°C° 0 mm 1 mps 716 mmHg 10%
    16:00 +41°C° 0 mm 1 mps 716 mmHg 11%
    17:00 +39°C° 0 mm 1 mps 716 mmHg 12%
    18:00 +36°C° 0 mm 1 mps 716 mmHg 13%
    19:00 +35°C° 0 mm 1 mps 716 mmHg 13%
    20:00 +34°C° 0 mm 1 mps 717 mmHg 13%
    21:00 +32°C° 0 mm 1 mps 718 mmHg 13%
    22:00 +32°C° 0 mm 1 mps 717 mmHg 12%
    23:00 +31°C° 0 mm 1 mps 717 mmHg 11%

    22 February, Friday

    Time Temperature Precipitation Wind Pressure Humidity
    00:00 +30°C° 0 mm 1 mps 717 mmHg 11%
    01:00 +30°C° 0 mm 1 mps 717 mmHg 11%
    02:00 +29°C° 0 mm 1 mps 716 mmHg 12%
    03:00 +28°C° 0 mm 1 mps 716 mmHg 12%
    04:00 +28°C° 0 mm 1 mps 716 mmHg 13%
    05:00 +27°C° 0 mm 1 mps 717 mmHg 13%
    06:00 +27°C° 0 mm 1 mps 717 mmHg 14%
    07:00 +29°C° 0 mm 1 mps 718 mmHg 16%
    08:00 +32°C° 0 mm 1 mps 719 mmHg 18%
    09:00 +34°C° 0 mm 1 mps 719 mmHg 21%
    10:00 +37°C° 0 mm 2 mps 719 mmHg 17%
    11:00 +39°C° 0 mm 2 mps 718 mmHg 13%
    12:00 +41°C° 0 mm 2 mps 718 mmHg 9%
    13:00 +42°C° 0 mm 2 mps 717 mmHg 8%
    14:00 +42°C° 0 mm 2 mps 716 mmHg 7%
    15:00 +42°C° 0 mm 2 mps 715 mmHg 7%
    16:00 +40°C° 0 mm 2 mps 715 mmHg 7%
    17:00 +39°C° 0 mm 2 mps 715 mmHg 8%
    18:00 +36°C° 0 mm 1 mps 715 mmHg 9%
    19:00 +35°C° 0 mm 2 mps 716 mmHg 9%
    20:00 +34°C° 0 mm 2 mps 716 mmHg 10%
    21:00 +32°C° 0 mm 2 mps 717 mmHg 10%
    22:00 +31°C° 0 mm 2 mps 716 mmHg 10%
    23:00 +31°C° 0 mm 2 mps 716 mmHg 11%

    23 February, Saturday

    Time Temperature Precipitation Wind Pressure Humidity
    00:00 +30°C° 0 mm 2 mps 716 mmHg 11%
    01:00 +29°C° 0 mm 2 mps 716 mmHg 12%
    02:00 +28°C° 0 mm 1 mps 715 mmHg 13%
    03:00 +27°C° 0 mm 1 mps 715 mmHg 14%
    04:00 +27°C° 0 mm 1 mps 715 mmHg 18%
    05:00 +26°C° 0 mm 1 mps 716 mmHg 23%
    06:00 +26°C° 0 mm 1 mps 716 mmHg 28%
    07:00 +28°C° 0 mm 1 mps 717 mmHg 32%
    08:00 +30°C° 0 mm 2 mps 718 mmHg 35%
    09:00 +32°C° 0 mm 2 mps 718 mmHg 39%
    10:00 +36°C° 0 mm 2 mps 718 mmHg 30%
    11:00 +39°C° 0 mm 1 mps 718 mmHg 21%
    12:00 +41°C° 0 mm 1 mps 717 mmHg 12%
    13:00 +41°C° 0 mm 1 mps 716 mmHg 11%
    14:00 +41°C° 0 mm 1 mps 715 mmHg 10%
    15:00 +41°C° 0 mm 2 mps 714 mmHg 8%
    16:00 +40°C° 0 mm 2 mps 714 mmHg 8%
    17:00 +38°C° 0 mm 2 mps 714 mmHg 8%
    18:00 +36°C° 0 mm 2 mps 714 mmHg 8%
    19:00 +35°C° 0 mm 2 mps 715 mmHg 8%
    20:00 +32°C° 0 mm 2 mps 715 mmHg 8%
    21:00 +31°C° 0 mm 2 mps 716 mmHg 8%
    22:00 +30°C° 0 mm 2 mps 715 mmHg 8%
    23:00 +30°C° 0 mm 2 mps 715 mmHg 9%

    24 February, Sunday

    Time Temperature Precipitation Wind Pressure Humidity
    00:00 +30°C° 0 mm 1 mps 715 mmHg 9%
    01:00 +29°C° 0 mm 1 mps 715 mmHg 11%
    02:00 +27°C° 0 mm 1 mps 714 mmHg 12%
    03:00 +24°C° 0 mm 0 mps 714 mmHg 14%
    04:00 +24°C° 0 mm 0 mps 714 mmHg 15%
    05:00 +24°C° 0 mm 0 mps 715 mmHg 17%
    06:00 +23°C° 0 mm 0 mps 715 mmHg 18%
    07:00 +26°C° 0 mm 0 mps 716 mmHg 18%
    08:00 +31°C° 0 mm 1 mps 717 mmHg 17%
    09:00 +34°C° 0 mm 1 mps 718 mmHg 17%
    10:00 +36°C° 0 mm 1 mps 717 mmHg 13%
    11:00 +37°C° 0 mm 0 mps 717 mmHg 10%
    12:00 +40°C° 0 mm 0 mps 717 mmHg 7%
    13:00 +43°C° 0 mm 1 mps 716 mmHg 6%
    14:00 +42°C° 0 mm 1 mps 715 mmHg 6%
    15:00 +41°C° 0 mm 1 mps 714 mmHg 6%
    16:00 +40°C° 0 mm 1 mps 714 mmHg 6%
    17:00 +37°C° 0 mm 1 mps 714 mmHg 7%
    18:00 +36°C° 0 mm 2 mps 714 mmHg 7%
    19:00 +35°C° 0 mm 2 mps 715 mmHg 7%
    20:00 +32°C° 0 mm 2 mps 715 mmHg 7%
    21:00 +31°C° 0 mm 2 mps 715 mmHg 7%
    22:00 +30°C° 0 mm 2 mps 715 mmHg 7%
    23:00 +30°C° 0 mm 2 mps 715 mmHg 7%
    Show more